Weather History for Hutchinson, KS

Change the Weather History Date:

Friday, January 11, 2013

  Actual Average Record
Temperature  
Mean Temperature 47 °F -  
Max Temperature 57 °F 40 °F 66 °F (2006)
Min Temperature 37 °F 17 °F 0 °F (1997)
Degree Days  
Heating Degree Days 18    
Moisture  
Dew Point 40 °F    
Average Humidity 76    
Maximum Humidity 100    
Minimum Humidity 24    
Precipitation  
Precipitation 0.00 in - - ()
Sea Level Pressure  
Sea Level Pressure 29.62 in    
Wind  
Wind Speed 17 mph (SSW)    
Max Wind Speed 28 mph    
Max Gust Speed 34 mph    
Visibility 9 miles    
Events      
Averages and records for this station are not official NWS values.
T = Trace of Precipitation, MM = Missing Value Source: NWS Daily Summary

Daily Weather History Graph

Daily Weather History Graph

Search for Another Location

Airport:

Trip Planner

Search our weather history database for the weather conditions in past years. The results will help you decide how hot, cold, wet, or windy it might be!

Date:

Astronomy

Jan. 11, 2013 Rise Set
Actual Time 7:47 AM CST 5:31 PM CST
Civil Twilight 7:18 AM CST 6:00 PM CST
Nautical Twilight 6:45 AM CST 6:33 PM CST
Astronomical Twilight 6:14 AM CST 7:05 PM CST
Moon 7:22 AM CST (1/11) 5:50 PM CST (1/11)
Length of Visible Light 10h 42m
Length of Day
9h 44m
Waning Crescent, 0% of the Moon is Illuminated
Jan 11
Waning Crescent
Jan 11
New
Jan 18
First Quarter
Jan 26
Full
Feb 3
Last Quarter

Hourly Weather History & Observations

Time (CST) Temp. Windchill Dew Point Humidity Pressure Visibility Wind Dir Wind Speed Gust Speed Precip Events Conditions
12:09 AM 44.6 °F 36.9 °F 44.6 °F 100% 29.74 in 2.5 mi SSW 18.4 mph 27.6 mph N/A   Overcast
12:16 AM 44.6 °F 37.4 °F 44.6 °F 100% 29.73 in 4.0 mi South 16.1 mph - N/A   Overcast
12:52 AM 45.0 °F 38.5 °F 43.0 °F 93% 29.72 in 7.0 mi South 13.8 mph - N/A   Overcast
1:52 AM 45.0 °F 38.2 °F 44.1 °F 97% 29.69 in 7.0 mi South 15.0 mph - N/A   Overcast
2:52 AM 46.0 °F 39.3 °F 44.1 °F 93% 29.67 in 7.0 mi South 16.1 mph - N/A   Overcast
3:19 AM 46.4 °F 39.2 °F 44.6 °F 93% 29.65 in 9.0 mi South 18.4 mph - N/A   Overcast
3:52 AM 46.0 °F 39.3 °F 44.1 °F 93% 29.63 in 9.0 mi South 16.1 mph - N/A   Overcast
4:52 AM 46.0 °F 39.3 °F 43.0 °F 89% 29.58 in 10.0 mi South 16.1 mph - N/A   Mostly Cloudy
5:19 AM 44.6 °F 36.9 °F 42.8 °F 93% 29.58 in 10.0 mi South 18.4 mph 25.3 mph N/A   Scattered Clouds
6:52 AM 45.0 °F 37.6 °F 41.0 °F 86% 29.57 in 10.0 mi South 17.3 mph - N/A   Clear
8:52 AM 46.0 °F 40.2 °F 42.1 °F 86% 29.61 in 10.0 mi South 12.7 mph - N/A   Clear
9:52 AM 46.9 °F - 42.1 °F 83% 29.59 in 10.0 mi South 13.8 mph - N/A   Clear
10:52 AM 48.9 °F - 42.1 °F 77% 29.60 in 10.0 mi South 10.4 mph - N/A   Clear
11:52 AM 50.0 °F - 42.1 °F 74% 29.55 in 10.0 mi South 16.1 mph - N/A   Clear
12:52 PM 51.1 °F - 42.1 °F 71% 29.52 in 10.0 mi South 19.6 mph - N/A   Clear
1:52 PM 52.0 °F - 43.0 °F 71% 29.49 in 10.0 mi South 19.6 mph - N/A   Clear
2:52 PM 55.0 °F - 43.0 °F 64% 29.48 in 10.0 mi South 18.4 mph 27.6 mph N/A   Clear
3:52 PM 55.9 °F - 43.0 °F 62% 29.49 in 10.0 mi South 18.4 mph - N/A   Clear
4:52 PM 55.9 °F - 44.1 °F 64% 29.50 in 10.0 mi South 20.7 mph 27.6 mph N/A   Clear
5:52 PM 55.9 °F - 42.1 °F 60% 29.54 in 10.0 mi SSW 15.0 mph - N/A   Clear
6:52 PM 57.9 °F - 39.9 °F 51% 29.58 in 10.0 mi SW 15.0 mph - N/A   Clear
7:52 PM 55.9 °F - 30.0 °F 37% 29.63 in 10.0 mi WSW 20.7 mph 25.3 mph N/A   Clear
8:52 PM 52.0 °F - 16.0 °F 24% 29.68 in 10.0 mi West 20.7 mph 32.2 mph N/A   Clear
9:52 PM 44.1 °F 34.4 °F 32.0 °F 63% 29.76 in 10.0 mi NW 27.6 mph 34.5 mph N/A   Clear
10:52 PM 37.9 °F 29.6 °F 30.0 °F 73% 29.80 in 10.0 mi NNW 13.8 mph - N/A   Clear
11:52 PM 37.0 °F 28.5 °F 28.9 °F 73% 29.86 in 10.0 mi NNW 13.8 mph 21.9 mph N/A   Partly Cloudy